Location: Unspecified
(50.7693°N, 0.0000°E)
Time: 08:52:33
(UTC+00:00)

SR - Pass Details

Date: 25 June 2019
Orbit: 580 x 876 km, 66.7° (Epoch: 17 July)

Event Time Altitude Azimuth Distance (km) Brightness Sun altitude
Rises 10:56:42 0° 323° (NW) 2,983 ? 59.8°
Reaches altitude 10° 10:58:56 10° 325° (NW) 2,109 ? 60.0°
Maximum altitude 11:03:43 76° 51° (NE) 740 ? 60.3°
Drops below altitude 10° 11:08:57 10° 138° (SE) 2,292 ? 60.7°
Sets 11:11:27 0° 140° (SE) 3,263 ? 60.9°
